Location: Dzierzno
(50.6159°N, 19.2852°E)
Time: 03:07:15
(UTC+00:00)

ARIANE 5 R/B - Pass Details

Date: 18 November 2025
Orbit: 746 x 792 km, 98.8° (Epoch: 04 December)

Event Time Altitude Azimuth Distance (km) Brightness Sun altitude
Rises 16:03:44 0° 162° (SSE) 3,179 5.7 -11.1°
Reaches altitude 10° 16:06:00 10° 163° (SSE) 2,260 4.9 -11.5°
Maximum altitude 16:10:59 90° 81° (E) 756 2.5 -12.2°
Drops below altitude 10° 16:16:01 10° 345° (NNW) 2,288 5.0 -13.0°
Sets 16:18:20 0° 345° (NNW) 3,222 5.7 -13.4°
